Elkins, WV

4:58 AM EST on November 14, 2019 (GMT -0500)
Elkins-Randolph County

Weather History for KEKN - September, 2019

Change the Weather History Date:

Monday, September 23, 2019

  Actual Average Record
Temperature  
Mean Temperature 68 °F 60 °F  
Max Temperature 81 °F 71 °F 92 °F (1908)
Min Temperature 56 °F 48 °F 29 °F (1974)
Degree Days  
Heating Degree Days 0 6  
Month to date heating degree days 4 76  
Since 1 July heating degree days 11 106  
Cooling Degree Days 4 1  
Month to date cooling degree days 118 41  
Year to date cooling degree days 789 467  
Growing Degree Days 18 (Base 50)    
Moisture  
Dew Point 60 °F    
Average Humidity 79    
Maximum Humidity 93    
Minimum Humidity 48    
Precipitation  
Precipitation 0.17 in 0.12 in 1.28 in (1912)
Month to date precipitation 0.17 2.83  
Year to date precipitation 37.88 35.64  
Snow  
Snow 0.00 in 0.00 in 0.00 in (2016)
Month to date snowfall 0.0 0.0  
Since 1 September snowfall 0.0 0.0  
Snow Depth 0.00 in    
Sea Level Pressure  
Sea Level Pressure 30.02 in    
Wind  
Wind Speed 3 mph ()    
Max Wind Speed 17 mph    
Max Gust Speed 26 mph    
Visibility 8.0 miles    
Events Rain    
T = Trace of Precipitation, MM = Missing Value Source: Averaged Metar Reports

Daily Weather History Graph

Daily Weather History Graph

Search for Another Location

Airport or City:

Astronomy

Sep. 23, 2019 Rise Set
Actual Time 7:07 AM EDT 7:15 PM EDT
Civil Twilight 6:41 AM EDT 7:41 PM EDT
Nautical Twilight 6:10 AM EDT 8:12 PM EDT
Astronomical Twilight 5:38 AM EDT 8:44 PM EDT
Moon 12:52 AM EDT (9/23) 4:03 PM EDT (9/23)
Length of Visible Light 13h 00m
Length of Day
12h 07m
Waning Crescent, 33% of the Moon is Illuminated
Sep 23
Waning Crescent
Sep 28
New
Oct 5
First Quarter
Oct 13
Full
Oct 21
Last Quarter

Hourly Weather History & Observations

Time (EDT) Temp. Dew Point Humidity Pressure Visibility Wind Dir Wind Speed Gust Speed Precip Events Conditions
12:51 AM 61.0 °F 57.9 °F 90% 30.07 in 8.0 mi Calm Calm - N/A   Scattered Clouds
1:51 AM 61.0 °F 57.0 °F 87% 30.06 in 7.0 mi Calm Calm - N/A   Partly Cloudy
2:51 AM 60.1 °F 57.0 °F 90% 30.06 in 7.0 mi Calm Calm - N/A   Scattered Clouds
3:51 AM 59.0 °F 55.9 °F 90% 30.06 in 9.0 mi Calm Calm - N/A   Clear
4:51 AM 57.9 °F 55.0 °F 90% 30.06 in 5.0 mi Calm Calm - N/A   Clear
5:51 AM 57.0 °F 54.0 °F 89% 30.06 in 6.0 mi Calm Calm - N/A   Partly Cloudy
6:51 AM 57.0 °F 54.0 °F 89% 30.06 in 5.0 mi NW 3.5 mph - N/A   Scattered Clouds
7:51 AM 57.9 °F 55.0 °F 90% 30.06 in 5.0 mi Calm Calm - N/A   Scattered Clouds
8:51 AM 64.0 °F 57.9 °F 80% 30.06 in 9.0 mi Calm Calm - N/A   Scattered Clouds
9:51 AM 75.0 °F 57.0 °F 53% 30.05 in 10.0 mi WSW 10.4 mph - N/A   Partly Cloudy
10:51 AM 79.0 °F 57.9 °F 48% 30.03 in 10.0 mi West 11.5 mph 21.9 mph N/A   Mostly Cloudy
11:51 AM 77.0 °F 57.9 °F 52% 30.03 in 10.0 mi West 12.7 mph 19.6 mph N/A   Overcast
12:51 PM 77.0 °F 57.9 °F 52% 30.01 in 10.0 mi WSW 6.9 mph - N/A   Overcast
1:51 PM 72.0 °F 61.0 °F 68% 30.01 in 10.0 mi West 8.1 mph - N/A   Overcast
2:39 PM 70.0 °F 62.1 °F 76% 30.02 in 7.0 mi SW 5.8 mph - 0.00 in Rain Light Rain
2:51 PM 70.0 °F 62.1 °F 76% 30.01 in 9.0 mi South 4.6 mph - 0.00 in Rain Light Rain
3:51 PM 71.1 °F 62.1 °F 73% 29.98 in 10.0 mi SW 11.5 mph - 0.00 in   Overcast
4:47 PM 68.0 °F 62.6 °F 83% 30.00 in 1.8 mi SSW 9.2 mph - 0.02 in Rain Heavy Rain
4:51 PM 68.0 °F 63.0 °F 84% 29.99 in 1.2 mi SSW 6.9 mph - 0.05 in Rain Heavy Rain
5:04 PM 68.0 °F 64.4 °F 88% 29.99 in 4.0 mi SSE 4.6 mph - N/A Rain Light Rain
5:51 PM 68.0 °F 63.0 °F 84% 29.99 in 9.0 mi South 4.6 mph - 0.11 in Rain Light Rain
6:40 PM 68.0 °F 63.0 °F 84% 30.00 in 10.0 mi WSW 8.1 mph - 0.00 in   Overcast
6:51 PM 68.0 °F 63.0 °F 84% 29.99 in 10.0 mi West 4.6 mph - 0.00 in   Overcast
7:51 PM 66.9 °F 63.0 °F 87% 29.99 in 6.0 mi WSW 6.9 mph - 0.01 in Rain Light Rain
8:39 PM 66.9 °F 63.0 °F 87% 29.99 in 10.0 mi Calm Calm - 0.00 in   Overcast
8:51 PM 66.0 °F 63.0 °F 90% 29.99 in 10.0 mi Calm Calm - 0.00 in   Overcast
9:51 PM 68.0 °F 62.1 °F 81% 29.97 in 10.0 mi SW 5.8 mph - N/A   Overcast
10:51 PM 68.0 °F 62.1 °F 81% 29.96 in 10.0 mi Calm Calm - N/A   Mostly Cloudy
11:48 PM 68.0 °F 60.8 °F 78% 30.00 in 10.0 mi Variable 6.9 mph - N/A   Overcast
11:51 PM 68.0 °F 61.0 °F 78% 29.96 in 10.0 mi NW 4.6 mph - N/A   Overcast